Regional Weather Roundup
Issued by NWS Austin/San Antonio, TX

Home | Current Version | Previous Version | Text Only | Print | Product List | Glossary On
Versions: 1 2 3 4 5 6 7 8 9 10 11 12 13 14 15 16 17 18 19 20 21 22 23 24 25 26 27 28 29 30 31 32 33 34 35 36 37 38 39 40 41 42 43 44 45 46 47 48 49 50
000
ASUS44 KEWX 300110
RWREWX
SOUTH TEXAS REGIONAL WEATHER ROUNDUP
NATIONAL WEATHER SERVICE AUSTIN/SAN ANTONIO TX
800 PM CDT SUN MAR 29 2020

NOTE: "FAIR" INDICATED FEW OR NO CLOUDS BELOW 12,000 FEET WITH NO
SIGNIFICANT WEATHER AND/OR OBSTRUCTIONS TO VISIBILITY.

* - THESE STATIONS ARE NOT NWS OR FAA STATIONS...AND ARE NOT SUBJECT
    TO NWS AND FAA QUALITY CONTROL.

TXZ171-172-183>190-300200-
TEXAS HILL COUNTRY AND EDWARDS PLATEAU

CITY           SKY/WX    TMP DP  RH WIND       PRES   REMARKS
JUNCTION       CLOUDY    70  42  36 SE9       30.08R
*LLANO         MOCLDY    68  43  40 E5        30.12S
BURNET         CLOUDY    67  39  35 E7        30.12R
*HORSESHOE BAY CLOUDY    70  37  30 SE3       30.10R
*LAGO VISTA    CLOUDY    64  49  59 E6        30.11R
*KERRVILLE     CLOUDY    69  38  32 SE7       30.10R
*FREDERICKSBRG CLOUDY    68  36  30 SE7       30.10R
*ROCKSPRINGS   CLOUDY    68  32  26 SE7G14    30.12R
*BOERNE        CLOUDY    68  39  34 SE6       30.09S
*CASTROVILLE   CLOUDY    74  40  30 SE6       30.08S
HONDO          CLOUDY    71  38  29 E7        30.07R
*UVALDE        CLOUDY    72  35  26 E7        30.06S
DEL RIO        NOT AVBL
*LAUGHLIN AFB  CLOUDY    74  32  22 SE8       30.03R
*SPOFFORD      NOT AVBL
*EAGLE PASS    MOCLDY    73  28  19 SE8       30.03R
CARRIZO SPRGS  CLOUDY    72  43  35 SE13      30.04R
$$

TXZ173-191>194-202-209-217>225-228-300200-
CENTRAL AND SOUTH CENTRAL TEXAS

CITY           SKY/WX    TMP DP  RH WIND       PRES   REMARKS
GEORGETOWN     LGT RAIN  67  49  52 E6        30.12S
*TAYLOR        CLOUDY    70  48  45 E8        30.10R
AUSTIN/BERGSTM CLOUDY    69  52  54 E6        30.08R
AUSTIN/MABRY   CLOUDY    73  43  33 VRB3      30.09S
*PFLUGERVILLE  CLOUDY    70  48  46 E7        30.10S
SAN MARCOS     CLOUDY    72  48  42 E6        30.09R
NEW BRAUNFELS  CLOUDY    72  47  40 E5        30.07R
*RANDOLPH AFB  CLOUDY    71  42  35 E6        30.06S
*SEGUIN        NOT AVBL
SAN ANTONIO    CLOUDY    72  41  32 E8        30.07R
STINSON FIELD  LGT RAIN  70  46  42 E6        30.05R
*KELLY FIELD   CLOUDY    73  41  32 E7        30.05R
*PLEASANTON    CLOUDY    68  49  50 SE13      30.06R
*KENEDY        CLOUDY    62  57  85 N7        30.07F
*LA GRANGE     CLOUDY   N/A N/A N/A CALM      30.06S
*GIDDINGS      MOCLDY    71  54  54 CALM      30.10R
*GONZALES      CLOUDY    72  48  41 SE9       30.07R
$$

TXZ163>164-176>182-195>201-210>213-226-227-235-300200-
SOUTHEAST TEXAS

CITY           SKY/WX    TMP DP  RH WIND       PRES   REMARKS
COLLEGE STN    LGT RAIN  67  56  67 E9        30.10R
*BRYAN         CLOUDY    65  55  70 NE6       30.12R
*CALDWELL      CLOUDY    64  58  81 N6        30.11S
*CROCKETT      NOT AVBL
*BRENHAM       CLOUDY    70  54  57 CALM      30.10R
HUNTSVILLE     CLOUDY    68  53  58 CALM      30.10R
CONROE         MOCLDY    69  51  52 CALM      30.10R
HOUSTON BUSH   MOCLDY    71  44  37 E12       30.07S
HOUSTON HOBBY  MOCLDY    76  54  46 E8        30.07S
*HOUSTON SW AP CLOUDY    73  55  52 E3        30.08S
PEARLAND       CLOUDY    76  53  44 E5        30.08S
HOUSTON HOOKS  MOCLDY    72  49  44 E6        30.07S
ELLINGTON FLD  CLOUDY    73  57  56 E5        30.06S
SUGAR LAND     CLOUDY    76  46  34 E6        30.06S
*HOUSTON EXEC  CLOUDY    72  50  46 CALM      30.09R
*CLEVELAND MUN FAIR      65  49  57 CALM      30.11R
*WHARTON       CLOUDY    67  50  55 E3        30.08R
*COLUMBUS      CLOUDY    68  43  39 CALM      30.09R
*EAGLE LAKE    CLOUDY    73  53  50 CALM      30.07
$$

TXZ214>216-236>238-300200-
THE UPPER TEXAS COAST

CITY           SKY/WX    TMP DP  RH WIND       PRES   REMARKS
*ORANGE        FAIR      71  52  49 NE3       30.10S
PORT ARTHUR    FAIR      72  52  49 NE9       30.08R
GALVESTON      CLOUDY    76  57  51 NE10      30.07R
ANGLETON       CLOUDY    73  54  51 E8        30.06S
*BAY CITY      FAIR      69  57  67 NE3       30.05F
PALACIOS       FAIR      68  54  60 NE9       30.04S
$$

TXZ229>234-239>247-300200-
TEXAS COASTAL BEND AND RIO GRANDE PLAINS

CITY           SKY/WX    TMP DP  RH WIND       PRES   REMARKS
VICTORIA       CLOUDY    71  58  63 NE3       30.06R
*BEEVILLE      CLOUDY    69  59  72 NE6       30.03S
ROCKPORT       CLOUDY    73  60  63 E14       30.03R
*PORT ARANSAS  CLOUDY    72  62  72 E14       30.05R
*PORT LAVACA   FAIR      71  60  66 E12       30.05S
*INGLESIDE     MOCLDY    73  62  67 E12       30.03S
CORPUS CHRISTI CLOUDY    70  60  70 E12       30.02S
CORPUS NAS     MOCLDY    72  64  76 E17       30.03R
*ROBSTOWN      FAIR      69  56  64 E10       30.02F
ALICE          CLOUDY    67  59  75 NE6       30.02F
KINGSVILLE NAS CLOUDY    73  59  61 E13       30.02R
COTULLA        CLOUDY    71  50  47 E3        30.04S
LAREDO         CLOUDY    61  58  90 N8        30.03F
$$

TXZ248>255-300200-
DEEP SOUTH TEXAS

CITY           SKY/WX    TMP DP  RH WIND       PRES   REMARKS
BROWNSVILLE    FAIR      77  71  82 E10       29.96S
PORT ISABEL    FAIR      77  71  82 E12       29.96F
HARLINGEN      FAIR      76  70  82 E12       29.96S
*HEBBRONVILLE  CLOUDY    65  55  68 E10       30.03S
MCALLEN        CLOUDY    76  67  73 W8        29.97S
*WESLACO       MOCLDY    78  67  70 E8        29.96
FALFURRIAS     MOCLDY    75  61  62 E10G18    30.00F
EDINBURG       CLOUDY    76  67  73 E14       29.98S
*ZAPATA        CLOUDY    64  58  82 NW5       30.03S
$$

TXZ213>215-236>238-242>244-246-247-251-254-255-300200-
CMAN STATIONS

STATION/POSITION TIME  TEMP    WIND        PRES    WAVE
                       AIR SEA DIR/SP/G            HT/PER
                 (UTC) (F)     (DEG/KT/KT) (MB)    (FT/S)
SABINE PASS      0018   75 77   50/  6/  8 1020.0
NORTH JETTY/GLS  0018   74 74   90/ 14/ 17 1016.9
EAGLE POINT      0030   75 75   90/ 11/ 13 1017.6
MORGANS POINT    0030   75 76   70/  7/  8 1018.3
PORT O`CONNOR    0018   71 72              1016.5
PORT ARANSAS     0100   71 71   60/ 18/ 19 1016.6
MALAQUITE BEACH  0030   72 73   40/ 17/ 19 1016.4
BAFFIN BAY       0018   72 75   40/ 14/ 17 1016.4
PORT ISABEL      0018   76 78   80/ 11/ 16 1015.0
$$




USA.gov is the U.S. government's official web portal to all federal, state and local government web resources and services.